DECAYED

CZ-6A DEB, 54435 (Decayed)

Orbit data source: Space-Track

CZ-6A DEB, 54435 was space debris in LEO originally from a launch on Fri, 11 Nov 2022 UTC launched from the Taiyaun Space Center, China (TSC). Debris objects in space refer to the collection of defunct objects orbiting the Earth. Examples of debris include non-operational satellites, rocket bodies, and fragments generated from explosions, collisions, or faulty payload assembly.

Not visible in the next 10 days
Identifier
54435, 2022-151FK
Orbit
Decayed
Country
Flag of CNCN / PRC
Related business
Manufacturer
SAST
Mission
Decayed spacecraft
Bus & Motor
Unknown
Mass
Unknown
Launch date (UTC)
2022-11-11 (4 years ago)
Launch vehicle
Unknown
Launch site
Taiyaun Space Center, China (TSC)
Object type
Payload
Rocket body
Debris
Shape & HBR
Unknown shape, 0.1 m
Radar Cross Section
Medium (>0.1 m² and <1 m²)

Expand to show TLE details & history
Last TLE update: 1 year ago

TLE from 1 year ago
0 CZ-6A DEB
1 54435U 22151FK  25089.10251333  .17696313  34279-5  71573-2 0  9995
2 54435  98.9766 208.2315 0013241 302.6110  57.3896 16.23235751 54230
Epoch: 2025-03-30T02:27Z
TLE epoch observation values (Epoch: 2025-03-30T02:27:37.151Z)
Latitude
-0.00011°
Longitude
-16.41086°
Altitude
209.263 km
Speed
7.784 km/s
True Right ascension
13h 52m 55s
True Declination
0° 00' 00"
Sunlit
Object was in full shadow at epoch
Visualization orbit readout
Latitude
Unknown
Longitude
Unknown
Altitude
Unknown
Speed
Unknown
Apparent Right ascension
Unknown
Apparent Declination
Unknown
Sunlit
N/A
Visualization observer readout
Local Sidereal Time
19:34:22
Azimuth
Unknown
Elevation
Unknown
Doppler factor
Unknown
Orbital elements
Apogee altitude
216.409 km
Perigee altitude
198.968 km
Semi-major axis
6,585.825 km
Eccentricity
0.00132
Inclination
98.9766°
RAAN
208.2315°
Arg. of periapsis
302.611°
True anomaly
57.51753°
Mean anomaly
57.3896°
Eccentric anomaly
57.45355°
Mean motion
4.06095 °/min
Orbital period
88.65 mins
BSTAR
0.0071573
Loading maneuver chart data...
Computing Atmospheric mass density...
Loading historical data...
Loading historical data...
Loading historical data...
Loading historical data...
Loading historical data...
Loading historical data...
Loading historical data...

Documentation

Showing up to 5 results
|